• în România
  • Lista ţărilor
  • Pe 7 zile
  • Temperatura apei
  • Hartă satelitară
  • Meteo pe hartă
  • Widget-uri
  • user-avatar
    Intrare

    Meteo pe oră la Petra Dubrava

    Astăzi, 19 Octombrie, Vineri

    Timp Temperatura Precipitaţii Vânt Presiune Umiditate
    00:00 +7°C° 0 mm 3 m/s 753 mmHg 68%
    01:00 +7°C° 0 mm 3 m/s 752 mmHg 70%
    02:00 +5°C° 0 mm 3 m/s 752 mmHg 73%
    03:00 +6°C° 0 mm 2 m/s 752 mmHg 81%
    04:00 +5°C° 0 mm 3 m/s 752 mmHg 83%
    05:00 +5°C° 0 mm 3 m/s 752 mmHg 84%
    06:00 +5°C° 0 mm 4 m/s 751 mmHg 86%
    07:00 +6°C° 0 mm 4 m/s 751 mmHg 82%
    08:00 +8°C° 0 mm 5 m/s 751 mmHg 79%
    09:00 +9°C° 0 mm 5 m/s 751 mmHg 76%
    10:00 +10°C° 0 mm 5 m/s 751 mmHg 71%
    11:00 +13°C° 0 mm 6 m/s 750 mmHg 67%
    12:00 +14°C° 0 mm 6 m/s 750 mmHg 62%
    13:00 +15°C° 0 mm 6 m/s 750 mmHg 62%
    14:00 +15°C° 0 mm 5 m/s 750 mmHg 61%
    15:00 +15°C° 0 mm 5 m/s 750 mmHg 61%
    16:00 +14°C° 0 mm 5 m/s 750 mmHg 64%
    17:00 +13°C° 0 mm 5 m/s 749 mmHg 68%
    18:00 +12°C° 0 mm 5 m/s 749 mmHg 72%
    19:00 +12°C° 0 mm 5 m/s 749 mmHg 72%
    20:00 +10°C° 0 mm 5 m/s 749 mmHg 73%
    21:00 +10°C° 0 mm 5 m/s 749 mmHg 73%
    22:00 +10°C° 0 mm 5 m/s 749 mmHg 74%
    23:00 +11°C° 0 mm 4 m/s 748 mmHg 74%

    Mâine, 20 Octombrie, Sâmbătă

    Timp Temperatura Precipitaţii Vânt Presiune Umiditate
    00:00 +10°C° 0 mm 4 m/s 748 mmHg 74%
    01:00 +10°C° 0 mm 4 m/s 748 mmHg 75%
    02:00 +10°C° 0 mm 4 m/s 748 mmHg 75%
    03:00 +9°C° 0 mm 5 m/s 747 mmHg 76%
    04:00 +8°C° 0 mm 4 m/s 747 mmHg 77%
    05:00 +8°C° 0 mm 4 m/s 747 mmHg 78%
    06:00 +8°C° 0 mm 4 m/s 747 mmHg 79%
    07:00 +8°C° 0 mm 5 m/s 747 mmHg 75%
    08:00 +9°C° 0 mm 5 m/s 747 mmHg 72%
    09:00 +10°C° 0 mm 5 m/s 747 mmHg 69%
    10:00 +12°C° 0 mm 5 m/s 747 mmHg 69%
    11:00 +12°C° 0 mm 5 m/s 747 mmHg 69%
    12:00 +13°C° 0 mm 4 m/s 747 mmHg 68%
    13:00 +13°C° 0 mm 4 m/s 747 mmHg 70%
    14:00 +12°C° 0 mm 4 m/s 747 mmHg 72%
    15:00 +12°C° 0 mm 4 m/s 747 mmHg 73%
    16:00 +11°C° 0 mm 3 m/s 748 mmHg 75%
    17:00 +10°C° 0 mm 3 m/s 748 mmHg 77%
    18:00 +9°C° 0 mm 2 m/s 748 mmHg 79%
    19:00 +8°C° 0 mm 2 m/s 749 mmHg 80%
    20:00 +8°C° 0 mm 2 m/s 749 mmHg 80%
    21:00 +7°C° 0 mm 2 m/s 749 mmHg 80%
    22:00 +6°C° 0 mm 2 m/s 749 mmHg 81%
    23:00 +6°C° 0 mm 2 m/s 750 mmHg 82%

    Poimâine, 21 Octombrie, Duminică

    Timp Temperatura Precipitaţii Vânt Presiune Umiditate
    00:00 +5°C° 0 mm 2 m/s 750 mmHg 84%
    01:00 +6°C° 0 mm 1 m/s 750 mmHg 84%
    02:00 +6°C° 0 mm 1 m/s 750 mmHg 84%
    03:00 +5°C° 0 mm 1 m/s 751 mmHg 85%
    04:00 +5°C° 0 mm 1 m/s 751 mmHg 86%
    05:00 +5°C° 0 mm 1 m/s 751 mmHg 86%
    06:00 +5°C° 0 mm 1 m/s 751 mmHg 87%
    07:00 +6°C° 0 mm 1 m/s 752 mmHg 82%
    08:00 +7°C° 0 mm 1 m/s 752 mmHg 77%
    09:00 +8°C° 0 mm 1 m/s 753 mmHg 71%
    10:00 +9°C° 0 mm 1 m/s 753 mmHg 66%
    11:00 +9°C° 0 mm 2 m/s 753 mmHg 61%
    12:00 +10°C° 0 mm 2 m/s 753 mmHg 56%
    13:00 +10°C° 0 mm 2 m/s 753 mmHg 55%
    14:00 +10°C° 0 mm 2 m/s 753 mmHg 55%
    15:00 +10°C° 0 mm 2 m/s 753 mmHg 54%
    16:00 +8°C° 0 mm 2 m/s 754 mmHg 59%
    17:00 +7°C° 0 mm 2 m/s 754 mmHg 64%
    18:00 +6°C° 0 mm 2 m/s 754 mmHg 69%
    19:00 +7°C° 0 mm 1 m/s 754 mmHg 71%
    20:00 +6°C° 0 mm 1 m/s 754 mmHg 74%
    21:00 +6°C° 0 mm 1 m/s 755 mmHg 77%
    22:00 +6°C° 0 mm 1 m/s 755 mmHg 78%
    23:00 +6°C° 0 mm 1 m/s 755 mmHg 79%

    22 Octombrie, Luni

    Timp Temperatura Precipitaţii Vânt Presiune Umiditate
    00:00 +6°C° 0 mm 1 m/s 755 mmHg 81%
    01:00 +5°C° 0 mm 1 m/s 755 mmHg 82%
    02:00 +5°C° 0 mm 1 m/s 755 mmHg 83%
    03:00 +5°C° 0 mm 1 m/s 755 mmHg 84%
    04:00 +5°C° 0 mm 1 m/s 755 mmHg 86%
    05:00 +3°C° 0 mm 2 m/s 755 mmHg 87%
    06:00 +3°C° 0 mm 2 m/s 755 mmHg 88%
    07:00 +4°C° 0 mm 2 m/s 756 mmHg 83%
    08:00 +5°C° 0 mm 2 m/s 756 mmHg 78%
    09:00 +6°C° 0 mm 2 m/s 756 mmHg 73%
    10:00 +7°C° 0 mm 2 m/s 756 mmHg 67%
    11:00 +7°C° 0 mm 2 m/s 756 mmHg 62%
    12:00 +8°C° 0 mm 2 m/s 756 mmHg 57%
    13:00 +8°C° 0 mm 2 m/s 756 mmHg 56%
    14:00 +8°C° 0 mm 2 m/s 756 mmHg 55%
    15:00 +8°C° 0 mm 2 m/s 756 mmHg 54%
    16:00 +7°C° 0 mm 2 m/s 756 mmHg 58%
    17:00 +6°C° 0 mm 2 m/s 756 mmHg 63%
    18:00 +5°C° 0 mm 2 m/s 756 mmHg 67%
    19:00 +5°C° 0 mm 2 m/s 756 mmHg 69%
    20:00 +4°C° 0 mm 2 m/s 756 mmHg 71%
    21:00 +4°C° 0 mm 2 m/s 756 mmHg 72%
    22:00 +3°C° 0 mm 2 m/s 756 mmHg 73%
    23:00 +3°C° 0 mm 2 m/s 756 mmHg 74%

    23 Octombrie, Marţi

    Timp Temperatura Precipitaţii Vânt Presiune Umiditate
    00:00 +3°C° 0 mm 2 m/s 755 mmHg 75%
    01:00 +2°C° 0 mm 2 m/s 755 mmHg 76%
    02:00 +2°C° 0 mm 2 m/s 755 mmHg 76%
    03:00 +2°C° 0 mm 2 m/s 755 mmHg 77%
    04:00 +1°C° 0 mm 2 m/s 755 mmHg 77%
    05:00 +1°C° 0 mm 2 m/s 755 mmHg 77%
    06:00 +1°C° 0 mm 2 m/s 755 mmHg 76%
    07:00 +2°C° 0 mm 2 m/s 755 mmHg 70%
    08:00 +3°C° 0 mm 2 m/s 755 mmHg 63%
    09:00 +3°C° 0 mm 3 m/s 754 mmHg 57%
    10:00 +4°C° 0 mm 3 m/s 754 mmHg 51%
    11:00 +7°C° 0 mm 3 m/s 754 mmHg 45%
    12:00 +8°C° 0 mm 3 m/s 754 mmHg 40%
    13:00 +9°C° 0 mm 3 m/s 753 mmHg 40%
    14:00 +9°C° 0 mm 3 m/s 753 mmHg 40%
    15:00 +9°C° 0 mm 3 m/s 752 mmHg 40%
    16:00 +8°C° 0 mm 3 m/s 752 mmHg 45%
    17:00 +7°C° 0 mm 3 m/s 752 mmHg 50%
    18:00 +5°C° 0 mm 3 m/s 751 mmHg 55%
    19:00 +5°C° 0 mm 3 m/s 751 mmHg 57%
    20:00 +5°C° 0 mm 3 m/s 751 mmHg 59%
    21:00 +7°C° 0 mm 3 m/s 750 mmHg 61%
    22:00 +7°C° 0 mm 3 m/s 750 mmHg 63%
    23:00 +7°C° 0 mm 3 m/s 749 mmHg 65%

    24 Octombrie, Miercuri

    Timp Temperatura Precipitaţii Vânt Presiune Umiditate
    00:00 +7°C° 0 mm 3 m/s 749 mmHg 67%
    01:00 +7°C° 0 mm 3 m/s 748 mmHg 68%
    02:00 +7°C° 0 mm 3 m/s 748 mmHg 70%
    03:00 +7°C° 0 mm 3 m/s 748 mmHg 71%
    04:00 +6°C° 0 mm 4 m/s 747 mmHg 69%
    05:00 +7°C° 0 mm 4 m/s 747 mmHg 67%
    06:00 +7°C° 0 mm 4 m/s 746 mmHg 66%
    07:00 +8°C° 0 mm 5 m/s 746 mmHg 64%
    08:00 +9°C° 0 mm 6 m/s 746 mmHg 62%
    09:00 +9°C° 0 mm 6 m/s 745 mmHg 60%
    10:00 +10°C° 0 mm 6 m/s 745 mmHg 61%
    11:00 +10°C° 0 mm 6 m/s 744 mmHg 62%
    12:00 +10°C° 0 mm 6 m/s 744 mmHg 63%
    13:00 +10°C° 0.1 mm 6 m/s 744 mmHg 63%
    14:00 +11°C° 0.1 mm 6 m/s 743 mmHg 63%
    15:00 +11°C° 0.1 mm 6 m/s 743 mmHg 63%
    16:00 +12°C° 0.3 mm 5 m/s 742 mmHg 64%
    17:00 +12°C° 0.3 mm 5 m/s 742 mmHg 65%
    18:00 +12°C° 0.3 mm 4 m/s 742 mmHg 66%
    19:00 +12°C° 0.1 mm 5 m/s 742 mmHg 63%
    20:00 +12°C° 0.1 mm 5 m/s 741 mmHg 61%
    21:00 +11°C° 0.1 mm 6 m/s 741 mmHg 59%
    22:00 +11°C° 0.1 mm 6 m/s 740 mmHg 58%
    23:00 +11°C° 0.1 mm 6 m/s 740 mmHg 57%
    Arată mai mult